[Iaude] MPEC U245: 2017 UP6 [a=0.82,e=0.46,i=5.6,H=26.1]

mpec at mpcdb1.cfa.harvard.edu mpec at mpcdb1.cfa.harvard.edu
Sat Oct 28 17:39:17 EDT 2017


M.P.E.C. 2017-U245                               Issued 2017 Oct. 28, 21:35 UT
 
     The Minor Planet Electronic Circulars contain information on unusual
         minor planets and routine data on comets.  They are published
    on behalf of Division F of the International Astronomical Union by the
          Minor Planet Center, Smithsonian Astrophysical Observatory,
                          Cambridge, MA 02138, U.S.A.

             Prepared using the Tamkin Foundation Computer Network

                              MPC at CFA.HARVARD.EDU
            URL http://www.minorplanetcenter.net/    ISSN 1523-6714


                                   2017 UP6
 
Observations:
     K17U06P* C2017 10 25.34636 02 54 17.53 -06 02 22.5          20.5 GUEU245G96
     K17U06P  C2017 10 25.35690 02 54 11.04 -06 05 01.7          20.4 GUEU245G96
     K17U06P  C2017 10 25.36221 02 54 07.76 -06 06 23.4          20.9 GUEU245G96
     K17U06P  C2017 10 25.38389902 53 54.00 -06 11 57.4          20.1 GUEU245H01
     K17U06P  C2017 10 25.39109002 53 49.60 -06 13 47.1          21.5 GUEU245H01
     K17U06P  C2017 10 25.40101002 53 43.52 -06 16 19.0          20.9 GUEU245H01
     K17U06P  C2017 10 25.44876 02 53 14.61 -06 28 29.3          21.0 GUEU245I52
     K17U06P  C2017 10 25.45021 02 53 13.77 -06 28 52.0          21.5 GUEU245I52
     K17U06P  C2017 10 25.45165 02 53 12.87 -06 29 14.9          20.3 GUEU245I52
     K17U06P  C2017 10 25.45310 02 53 12.02 -06 29 36.3          21.3 GUEU245I52
     K17U06P  C2017 10 26.19847 02 45 48.08 -09 54 39.2          20.3 GUEU245I52
     K17U06P  C2017 10 26.20088 02 45 46.40 -09 55 21.8          20.5 GUEU245I52
     K17U06P  C2017 10 26.20329 02 45 44.70 -09 56 04.0          20.5 GUEU245I52
     K17U06P  C2017 10 26.26862 02 44 57.88 -10 15 21.9          19.7 RoEU245926
     K17U06P  C2017 10 26.27303 02 44 54.65 -10 16 40.4          20.1 RoEU245926
     K17U06P  C2017 10 26.27745 02 44 51.43 -10 17 59.3          19.9 RoEU245926
     K17U06P  C2017 10 26.32057 02 44 19.68 -10 30 53.4          20.3 GUEU245G96
     K17U06P  C2017 10 26.32594 02 44 15.72 -10 32 30.3          20.6 GUEU245G96
     K17U06P  C2017 10 26.33131 02 44 11.76 -10 34 05.5          20.8 GUEU245G96
     K17U06P  C2017 10 26.33669 02 44 07.75 -10 35 42.5          21.3 GUEU245G96
     K17U06P  C2017 10 27.30122 02 32 00.76 -15 48 28.6          20.1 GUEU245V06
     K17U06P  C2017 10 27.30259 02 31 59.51 -15 48 57.3          20.7 GUEU245V06
     K17U06P  C2017 10 27.30395 02 31 58.27 -15 49 25.9          20.2 GUEU245V06
     K17U06P  C2017 10 27.30532 02 31 57.00 -15 49 54.7          20.8 GUEU245V06
     K17U06P  C2017 10 27.36350 02 31 03.91 -16 10 16.9          20.1 RoEU245926
     K17U06P  C2017 10 27.36709 02 31 00.61 -16 11 32.6          19.7 RoEU245926
     K17U06P  C2017 10 27.37071 02 30 57.31 -16 12 48.9          19.8 RoEU245926
     K17U06P  C2017 10 28.32462 02 15 52.25 -22 13 40.1          20.4 GUEU245V06
     K17U06P  C2017 10 28.32545 02 15 51.32 -22 14 00.2          20.6 GUEU245V06
     K17U06P  C2017 10 28.32627 02 15 50.37 -22 14 20.1          20.7 GUEU245V06
     K17U06P  C2017 10 28.32708 02 15 49.44 -22 14 39.7          20.9 GUEU245V06
     K17U06P KC2017 10 28.50837102 12 35.38 -23 24 29.1          20.1 RUEU245474
     K17U06P KC2017 10 28.50914702 12 34.42 -23 24 48.3          20.4 RUEU245474
     K17U06P KC2017 10 28.50992002 12 33.56 -23 25 07.2          20.1 RUEU245474
     K17U06P KC2017 10 28.51177902 12 31.40 -23 25 53.1          20.4 RUEU245474
 
Observer details:
474 Mount John Observatory, Lake Tekapo.  Observers A. C. Gilmore,
    P. M. Kilmartin.  Measurer P. M. Kilmartin.  1.0-m f/7.7 reflector + CCD.
926 Tenagra II Observatory.  Observers M. Schwartz, P. R. Holvorcem.  Measurer
    M. Schwartz.  0.81-m f/7 Ritchey-Chretien + CCD.
G96 Mt. Lemmon Survey.  Observer G. J. Leonard.  Measurers E. J. Christensen,
    D. C. Fuls, A. R. Gibbs, A. D. Grauer, J. A. Johnson, R. A. Kowalski,
    S. M. Larson, G. J. Leonard, R. G. Matheny, R. L. Seaman, F. C. Shelly.
    1.5-m reflector + 10K CCD.
H01 Magdalena Ridge Observatory, Socorro.  Observers W. H. Ryan, E. V. Ryan.
    Measurer W. H. Ryan.  2.4-m f/8.9 reflector + CCD.
I52 Steward Observatory, Mt. Lemmon Station.  Observer D. C. Fuls.  Measurers
    E. J. Christensen, D. C. Fuls, A. R. Gibbs, A. D. Grauer, J. A. Johnson,
    R. A. Kowalski, S. M. Larson, G. J. Leonard, R. G. Matheny, R. L. Seaman,
    F. C. Shelly.  1.0-m reflector + CCD.
V06 Catalina Sky Survey-Kuiper.  Observer E. J. Christensen.  Measurers
    E. J. Christensen, D. C. Fuls, A. R. Gibbs, A. D. Grauer, J. A. Johnson,
    R. A. Kowalski, S. M. Larson, G. J. Leonard, R. G. Matheny, R. L. Seaman,
    F. C. Shelly.  1.55-m reflector + CCD.
 
Orbital elements:
2017 UP6                                                 Earth MOID = 0.0305 AU
Epoch 2017 Sept. 4.0 TT = JDT 2458000.5                 MPC
M 186.54044              (2000.0)            P               Q
n   1.32098509     Peri.  337.39077     -0.99879047     -0.03479014
a   0.8226292      Node   200.70607     +0.04390055     -0.94922647
e   0.4557176      Incl.    5.63951     -0.02214360     -0.31266397
P   0.75           H   26.1           G   0.15           U   8
Residuals in seconds of arc
171025 G96  0.0   0.2-    171026 I52  0.0   0.3-    171027 926  0.1-  0.1+
171025 G96  0.4-  0.9+    171026 926  0.1-  0.0     171027 926  0.2-  0.1+
171025 G96  0.7-  0.1+    171026 926  0.3-  0.2+    171027 926  0.1+  0.1+
171025 H01  0.1+  0.0     171026 926  0.2-  0.1+    171028 V06  0.2-  0.0
171025 H01  0.2+  0.2+    171026 G96  0.2+  0.2-    171028 V06  0.0   0.1-
171025 H01  0.2+  0.0     171026 G96  0.5+  0.8-    171028 V06  0.2-  0.2-
171025 I52  0.5-  0.3+    171026 G96  0.8+  0.4+    171028 V06  0.3-  0.3-
171025 I52  0.2+  0.0     171026 G96  0.5+  0.1+    171028 474  0.2+  0.0
171025 I52  0.1-  0.7-    171027 V06  0.1+  0.3+    171028 474  0.4-  0.1-
171025 I52  0.5+  0.2+    171027 V06  0.0   0.4+    171028 474  0.3+  0.1+
171026 I52  0.1-  0.7-    171027 V06  0.1-  0.3+    171028 474  0.7+  0.1+
171026 I52  0.1+  0.7-    171027 V06  0.5-  0.3+

Ephemeris:
2017 UP6                 a,e,i = 0.82, 0.46, 6                   q = 0.4477
Date    TT    R. A. (2000) Decl.     Delta      r     Elong.  Phase     V
2017 09 28    03 46 05.5 +22 52 41   0.2404  1.1579   125.4    44.9    25.0
...
2017 10 13    03 42 10.2 +17 03 55   0.1327  1.1058   142.3    33.5    23.3
...
2017 10 21    03 22 10.7 +07 00 25   0.08026 1.0689   155.1    23.1    21.9
...
2017 10 27    02 36 04.6 -14 03 09   0.04840 1.0369   152.2    26.6    20.8
2017 10 28    02 21 26.4 -20 02 42   0.04465 1.0313   146.8    31.9    20.8
2017 10 29    02 02 56.8 -26 52 51   0.04168 1.0255   139.7    38.8    20.8
...
2017 11 04    21 44 22.1 -60 41 42   0.04568 0.9886    84.7    92.6    22.7
...
2017 11 12    18 00 12.8 -50 57 33   0.08652 0.9337    47.6   128.5    26.2
...
2017 11 27    16 52 28.2 -39 01 57   0.1873  0.8133    20.1   155.4    31.6

A. U. Tomatic                (C) Copyright 2017 MPC           M.P.E.C. 2017-U245



More information about the Iaude mailing list